Year,Month,Day,Hour,Minute,Value (Times are PST for temperature in C)
2022,10,17,00,00,10.00
2022,10,17,00,01,9.90
2022,10,17,00,02,9.90
2022,10,17,00,03,9.90
2022,10,17,00,04,9.90
2022,10,17,00,05,9.90
2022,10,17,00,06,9.90
2022,10,17,00,07,9.90
2022,10,17,00,08,9.90
2022,10,17,00,09,9.80
2022,10,17,00,10,9.80
2022,10,17,00,11,9.80
2022,10,17,00,12,9.80
2022,10,17,00,13,9.80
2022,10,17,00,14,9.80
2022,10,17,00,15,9.80
2022,10,17,00,16,9.80
2022,10,17,00,17,9.90
2022,10,17,00,18,9.90
2022,10,17,00,19,9.90
2022,10,17,00,20,9.90
2022,10,17,00,21,9.90
2022,10,17,00,22,9.90
2022,10,17,00,23,9.90
2022,10,17,00,24,9.90
2022,10,17,00,25,9.90
2022,10,17,00,26,9.90
2022,10,17,00,27,9.90
2022,10,17,00,28,9.90
2022,10,17,00,29,9.90
2022,10,17,00,30,9.90
2022,10,17,00,31,9.90
2022,10,17,00,32,9.90
2022,10,17,00,33,9.80
2022,10,17,00,34,9.80
2022,10,17,00,35,9.80
2022,10,17,00,36,9.70
2022,10,17,00,37,9.70
2022,10,17,00,38,9.70
2022,10,17,00,39,9.70
2022,10,17,00,40,9.70
2022,10,17,00,41,9.70
2022,10,17,00,42,9.70
2022,10,17,00,43,9.70
2022,10,17,00,44,9.70
2022,10,17,00,45,9.70
2022,10,17,00,46,9.70
2022,10,17,00,47,9.70
2022,10,17,00,48,9.70
2022,10,17,00,49,9.70
2022,10,17,00,50,9.60
2022,10,17,00,51,9.60
2022,10,17,00,52,9.60
2022,10,17,00,53,9.60
2022,10,17,00,54,9.50
2022,10,17,00,55,9.50
2022,10,17,00,56,9.50
2022,10,17,00,57,9.50
2022,10,17,00,58,9.40
2022,10,17,00,59,9.40
2022,10,17,01,00,9.40
2022,10,17,01,01,9.30
2022,10,17,01,02,9.30
2022,10,17,01,03,9.30
2022,10,17,01,04,9.30
2022,10,17,01,05,9.30
2022,10,17,01,06,9.30
2022,10,17,01,07,9.20
2022,10,17,01,08,9.20
2022,10,17,01,09,9.20
2022,10,17,01,10,9.20
2022,10,17,01,11,9.20
2022,10,17,01,12,9.20
2022,10,17,01,13,9.20
2022,10,17,01,14,9.20
2022,10,17,01,15,9.20
2022,10,17,01,16,9.20
2022,10,17,01,17,9.20
2022,10,17,01,18,9.20
2022,10,17,01,19,9.20
2022,10,17,01,20,9.20
2022,10,17,01,21,9.10
2022,10,17,01,22,9.10
2022,10,17,01,23,9.10
2022,10,17,01,24,9.20
2022,10,17,01,25,9.20
2022,10,17,01,26,9.20
2022,10,17,01,27,9.20
2022,10,17,01,28,9.20
2022,10,17,01,29,9.20
2022,10,17,01,30,9.10
2022,10,17,01,31,9.10
2022,10,17,01,32,9.10
2022,10,17,01,33,9.10
2022,10,17,01,34,9.00
2022,10,17,01,35,9.00
2022,10,17,01,36,9.00
2022,10,17,01,37,9.00
2022,10,17,01,38,9.00
2022,10,17,01,39,9.00
2022,10,17,01,40,8.90
2022,10,17,01,41,8.90
2022,10,17,01,42,8.90
2022,10,17,01,43,8.80
2022,10,17,01,44,8.80
2022,10,17,01,45,8.80
2022,10,17,01,46,8.80
2022,10,17,01,47,8.80
2022,10,17,01,48,8.80
2022,10,17,01,49,8.80
2022,10,17,01,50,8.80
2022,10,17,01,51,8.80
2022,10,17,01,52,8.80
2022,10,17,01,53,8.80
2022,10,17,01,54,8.70
2022,10,17,01,55,8.70
2022,10,17,01,56,8.70
2022,10,17,01,57,8.70
2022,10,17,01,58,8.70
2022,10,17,01,59,8.70
2022,10,17,02,00,8.70
2022,10,17,02,01,8.70
2022,10,17,02,02,8.70
2022,10,17,02,03,8.60
2022,10,17,02,04,8.60
2022,10,17,02,05,8.60
2022,10,17,02,06,8.60
2022,10,17,02,07,8.60
2022,10,17,02,08,8.60
2022,10,17,02,09,8.60
2022,10,17,02,10,8.50
2022,10,17,02,11,8.50
2022,10,17,02,12,8.50
2022,10,17,02,13,8.40
2022,10,17,02,14,8.40
2022,10,17,02,15,8.30
2022,10,17,02,16,8.30
2022,10,17,02,17,8.30
2022,10,17,02,18,8.20
2022,10,17,02,19,8.20
2022,10,17,02,20,8.20
2022,10,17,02,21,8.20
2022,10,17,02,22,8.20
2022,10,17,02,23,8.20
2022,10,17,02,24,8.20
2022,10,17,02,25,8.20
2022,10,17,02,26,8.10
2022,10,17,02,27,8.10
2022,10,17,02,28,8.10
2022,10,17,02,29,8.10
2022,10,17,02,30,8.10
2022,10,17,02,31,8.10
2022,10,17,02,32,8.10
2022,10,17,02,33,8.10
2022,10,17,02,34,8.10
2022,10,17,02,35,8.10
2022,10,17,02,36,8.10
2022,10,17,02,37,8.10
2022,10,17,02,38,8.00
2022,10,17,02,39,8.00
2022,10,17,02,40,8.00
2022,10,17,02,41,8.00
2022,10,17,02,42,8.10
2022,10,17,02,43,8.10
2022,10,17,02,44,8.10
2022,10,17,02,45,8.10
2022,10,17,02,46,8.10
2022,10,17,02,47,8.00
2022,10,17,02,48,8.00
2022,10,17,02,49,8.00
2022,10,17,02,50,7.90
2022,10,17,02,51,7.90
2022,10,17,02,52,7.90
2022,10,17,02,53,7.90
2022,10,17,02,54,7.90
2022,10,17,02,55,7.90
2022,10,17,02,56,7.90
2022,10,17,02,57,7.90
2022,10,17,02,58,7.90
2022,10,17,02,59,7.90
2022,10,17,03,00,7.90
2022,10,17,03,01,7.90
2022,10,17,03,02,7.90
2022,10,17,03,03,7.90
2022,10,17,03,04,7.90
2022,10,17,03,05,7.90
2022,10,17,03,06,7.90
2022,10,17,03,07,7.90
2022,10,17,03,08,7.90
2022,10,17,03,09,7.90
2022,10,17,03,10,7.80
2022,10,17,03,11,7.80
2022,10,17,03,12,7.80
2022,10,17,03,13,7.80
2022,10,17,03,14,7.80
2022,10,17,03,15,7.80
2022,10,17,03,16,7.80
2022,10,17,03,17,7.80
2022,10,17,03,18,7.80
2022,10,17,03,19,7.80
2022,10,17,03,20,7.80
2022,10,17,03,21,7.80
2022,10,17,03,22,7.70
2022,10,17,03,23,7.70
2022,10,17,03,24,7.70
2022,10,17,03,25,7.70
2022,10,17,03,26,7.70
2022,10,17,03,27,7.70
2022,10,17,03,28,7.70
2022,10,17,03,29,7.70
2022,10,17,03,30,7.70
2022,10,17,03,31,7.70
2022,10,17,03,32,7.60
2022,10,17,03,33,7.60
2022,10,17,03,34,7.60
2022,10,17,03,35,7.60
2022,10,17,03,36,7.60
2022,10,17,03,37,7.60
2022,10,17,03,38,7.60
2022,10,17,03,39,7.60
2022,10,17,03,40,7.60
2022,10,17,03,41,7.60
2022,10,17,03,42,7.60
2022,10,17,03,43,7.60
2022,10,17,03,44,7.60
2022,10,17,03,45,7.60
2022,10,17,03,46,7.60
2022,10,17,03,47,7.60
2022,10,17,03,48,7.60
2022,10,17,03,49,7.60
2022,10,17,03,50,7.50
2022,10,17,03,51,7.50
2022,10,17,03,52,7.50
2022,10,17,03,53,7.50
2022,10,17,03,54,7.50
2022,10,17,03,55,7.60
2022,10,17,03,56,7.60
2022,10,17,03,57,7.60
2022,10,17,03,58,7.60
2022,10,17,03,59,7.50
2022,10,17,04,00,7.50
2022,10,17,04,01,7.50
2022,10,17,04,02,7.60
2022,10,17,04,03,7.60
2022,10,17,04,04,7.60
2022,10,17,04,05,7.60
2022,10,17,04,06,7.70
2022,10,17,04,07,7.70
2022,10,17,04,08,7.70
2022,10,17,04,09,7.70
2022,10,17,04,10,7.70
2022,10,17,04,11,7.70
2022,10,17,04,12,7.70
2022,10,17,04,13,7.60
2022,10,17,04,14,7.60
2022,10,17,04,15,7.50
2022,10,17,04,16,7.50
2022,10,17,04,17,7.40
2022,10,17,04,18,7.40
2022,10,17,04,19,7.40
2022,10,17,04,20,7.40
2022,10,17,04,21,7.40
2022,10,17,04,22,7.40
2022,10,17,04,23,7.40
2022,10,17,04,24,7.40
2022,10,17,04,25,7.40
2022,10,17,04,26,7.40
2022,10,17,04,27,7.40
2022,10,17,04,28,7.50
2022,10,17,04,29,7.50
2022,10,17,04,30,7.50
2022,10,17,04,31,7.50
2022,10,17,04,32,7.50
2022,10,17,04,33,7.50
2022,10,17,04,34,7.40
2022,10,17,04,35,7.40
2022,10,17,04,36,7.40
2022,10,17,04,37,7.40
2022,10,17,04,38,7.40
2022,10,17,04,39,7.40
2022,10,17,04,40,7.40
2022,10,17,04,41,7.30
2022,10,17,04,42,7.30
2022,10,17,04,43,7.30
2022,10,17,04,44,7.30
2022,10,17,04,45,7.30
2022,10,17,04,46,7.30
2022,10,17,04,47,7.30
2022,10,17,04,48,7.30
2022,10,17,04,49,7.30
2022,10,17,04,50,7.30
2022,10,17,04,51,7.30
2022,10,17,04,52,7.30
2022,10,17,04,53,7.30
2022,10,17,04,54,7.30
2022,10,17,04,55,7.30
2022,10,17,04,56,7.30
2022,10,17,04,57,7.30
2022,10,17,04,58,7.30
2022,10,17,04,59,7.30
2022,10,17,05,00,7.30
2022,10,17,05,01,7.20
2022,10,17,05,02,7.20
2022,10,17,05,03,7.20
2022,10,17,05,04,7.10
2022,10,17,05,05,7.10
2022,10,17,05,06,7.10
2022,10,17,05,07,7.00
2022,10,17,05,08,7.00
2022,10,17,05,09,7.00
2022,10,17,05,10,7.00
2022,10,17,05,11,6.90
2022,10,17,05,12,6.90
2022,10,17,05,13,6.90
2022,10,17,05,14,6.80
2022,10,17,05,15,6.80
2022,10,17,05,16,6.80
2022,10,17,05,17,6.80
2022,10,17,05,18,6.80
2022,10,17,05,19,6.80
2022,10,17,05,20,6.80
2022,10,17,05,21,6.80
2022,10,17,05,22,6.80
2022,10,17,05,23,6.80
2022,10,17,05,24,6.80
2022,10,17,05,25,6.80
2022,10,17,05,26,6.80
2022,10,17,05,27,6.80
2022,10,17,05,28,6.90
2022,10,17,05,29,6.90
2022,10,17,05,30,6.90
2022,10,17,05,31,6.90
2022,10,17,05,32,6.90
2022,10,17,05,33,6.90
2022,10,17,05,34,6.90
2022,10,17,05,35,6.90
2022,10,17,05,36,6.80
2022,10,17,05,37,6.80
2022,10,17,05,38,6.80
2022,10,17,05,39,6.80
2022,10,17,05,40,6.80
2022,10,17,05,41,6.80
2022,10,17,05,42,6.70
2022,10,17,05,43,6.70
2022,10,17,05,44,6.70
2022,10,17,05,45,6.70
2022,10,17,05,46,6.70
2022,10,17,05,47,6.70
2022,10,17,05,48,6.70
2022,10,17,05,49,6.70
2022,10,17,05,50,6.70
2022,10,17,05,51,6.70
2022,10,17,05,52,6.80
2022,10,17,05,53,6.80
2022,10,17,05,54,6.80
2022,10,17,05,55,6.80
2022,10,17,05,56,6.80
2022,10,17,05,57,6.80
2022,10,17,05,58,6.80
2022,10,17,05,59,6.80
2022,10,17,06,00,6.80
2022,10,17,06,01,6.90
2022,10,17,06,02,6.90
2022,10,17,06,03,6.90
2022,10,17,06,04,6.90
2022,10,17,06,05,6.90
2022,10,17,06,06,6.80
2022,10,17,06,07,6.80
2022,10,17,06,08,6.80
2022,10,17,06,09,6.80
2022,10,17,06,10,6.80
2022,10,17,06,11,6.80
2022,10,17,06,12,6.80
2022,10,17,06,13,6.80
2022,10,17,06,14,6.80
2022,10,17,06,15,6.80
2022,10,17,06,16,6.80
2022,10,17,06,17,6.80
2022,10,17,06,18,6.80
2022,10,17,06,19,6.80
2022,10,17,06,20,6.80
2022,10,17,06,21,6.80
2022,10,17,06,22,6.80
2022,10,17,06,23,6.80
2022,10,17,06,24,6.80
2022,10,17,06,25,6.80
2022,10,17,06,26,6.80
2022,10,17,06,27,6.80
2022,10,17,06,28,6.80
2022,10,17,06,29,6.80
2022,10,17,06,30,6.80
2022,10,17,06,31,6.80
2022,10,17,06,32,6.80
2022,10,17,06,33,6.80
2022,10,17,06,34,6.70
2022,10,17,06,35,6.70
2022,10,17,06,36,6.70
2022,10,17,06,37,6.60
2022,10,17,06,38,6.60
2022,10,17,06,39,6.60
2022,10,17,06,40,6.60
2022,10,17,06,41,6.60
2022,10,17,06,42,6.60
2022,10,17,06,43,6.60
2022,10,17,06,44,6.60
2022,10,17,06,45,6.60
2022,10,17,06,46,6.50
2022,10,17,06,47,6.50
2022,10,17,06,48,6.60
2022,10,17,06,49,6.60
2022,10,17,06,50,6.60
2022,10,17,06,51,6.60
2022,10,17,06,52,6.60
2022,10,17,06,53,6.60
2022,10,17,06,54,6.60
2022,10,17,06,55,6.60
2022,10,17,06,56,6.60
2022,10,17,06,57,6.60
2022,10,17,06,58,6.60
2022,10,17,06,59,6.60
2022,10,17,07,00,6.60
2022,10,17,07,01,6.60
2022,10,17,07,02,6.60
2022,10,17,07,03,6.60
2022,10,17,07,04,6.60
2022,10,17,07,05,6.60
2022,10,17,07,06,6.60
2022,10,17,07,07,6.60
2022,10,17,07,08,6.60
2022,10,17,07,09,6.60
2022,10,17,07,10,6.60
2022,10,17,07,11,6.60
2022,10,17,07,12,6.60
2022,10,17,07,13,6.60
2022,10,17,07,14,6.60
2022,10,17,07,15,6.60
2022,10,17,07,16,6.60
2022,10,17,07,17,6.60
2022,10,17,07,18,6.60
2022,10,17,07,19,6.60
2022,10,17,07,20,6.70
2022,10,17,07,21,6.70
2022,10,17,07,22,6.70
2022,10,17,07,23,6.70
2022,10,17,07,24,6.60
2022,10,17,07,25,6.60
2022,10,17,07,26,6.60
2022,10,17,07,27,6.60
2022,10,17,07,28,6.60
2022,10,17,07,29,6.60
2022,10,17,07,30,6.60
2022,10,17,07,31,6.60
2022,10,17,07,32,6.60
2022,10,17,07,33,6.60
2022,10,17,07,34,6.60
2022,10,17,07,35,6.60
2022,10,17,07,36,6.60
2022,10,17,07,37,6.60
2022,10,17,07,38,6.60
2022,10,17,07,39,6.60
2022,10,17,07,40,6.50
2022,10,17,07,41,6.40
2022,10,17,07,42,6.40
2022,10,17,07,43,6.40
2022,10,17,07,44,6.40
2022,10,17,07,45,6.40
2022,10,17,07,46,6.30
2022,10,17,07,47,6.30
2022,10,17,07,48,6.20
2022,10,17,07,49,6.20
2022,10,17,07,50,6.20
2022,10,17,07,51,6.20
2022,10,17,07,52,6.20
2022,10,17,07,53,6.20
2022,10,17,07,54,6.20
2022,10,17,07,55,6.30
2022,10,17,07,56,6.30
2022,10,17,07,57,6.40
2022,10,17,07,58,6.40
2022,10,17,07,59,6.50
2022,10,17,08,00,6.60
2022,10,17,08,01,6.60
2022,10,17,08,02,6.60
2022,10,17,08,03,6.60
2022,10,17,08,04,6.60
2022,10,17,08,05,6.60
2022,10,17,08,06,6.60
2022,10,17,08,07,6.60
2022,10,17,08,08,6.70
2022,10,17,08,09,6.80
2022,10,17,08,10,6.80
2022,10,17,08,11,6.90
2022,10,17,08,12,6.90
2022,10,17,08,13,7.00
2022,10,17,08,14,7.00
2022,10,17,08,15,7.00
2022,10,17,08,16,7.00
2022,10,17,08,17,7.00
2022,10,17,08,18,7.00
2022,10,17,08,19,7.00
2022,10,17,08,20,7.00
2022,10,17,08,21,7.00
2022,10,17,08,22,7.00
2022,10,17,08,23,7.10
2022,10,17,08,24,7.10
2022,10,17,08,25,7.20
2022,10,17,08,26,7.20
2022,10,17,08,27,7.30
2022,10,17,08,28,7.30
2022,10,17,08,29,7.30
2022,10,17,08,30,7.30
2022,10,17,08,31,7.40
2022,10,17,08,32,7.50
2022,10,17,08,33,7.50
2022,10,17,08,34,7.60
2022,10,17,08,35,7.60
2022,10,17,08,36,7.60
2022,10,17,08,37,7.70
2022,10,17,08,38,7.80
2022,10,17,08,39,7.80
2022,10,17,08,40,7.90
2022,10,17,08,41,7.90
2022,10,17,08,42,8.00
2022,10,17,08,43,8.00
2022,10,17,08,44,8.10
2022,10,17,08,45,8.10
2022,10,17,08,46,8.20
2022,10,17,08,47,8.20
2022,10,17,08,48,8.30
2022,10,17,08,49,8.30
2022,10,17,08,50,8.40
2022,10,17,08,51,8.50
2022,10,17,08,52,8.50
2022,10,17,08,53,8.60
2022,10,17,08,54,8.60
2022,10,17,08,55,8.70
2022,10,17,08,56,8.70
2022,10,17,08,57,8.70
2022,10,17,08,58,8.70
2022,10,17,08,59,8.70
2022,10,17,09,00,8.80
2022,10,17,09,01,8.80
2022,10,17,09,02,8.90
2022,10,17,09,03,9.00
2022,10,17,09,04,9.10
2022,10,17,09,05,9.20
2022,10,17,09,06,9.30
2022,10,17,09,07,9.40
2022,10,17,09,08,9.50
2022,10,17,09,09,9.60
2022,10,17,09,10,9.70
2022,10,17,09,11,9.70
2022,10,17,09,12,9.80
2022,10,17,09,13,9.90
2022,10,17,09,14,10.00
2022,10,17,09,15,10.10
2022,10,17,09,16,10.10
2022,10,17,09,17,10.20
2022,10,17,09,18,10.30
2022,10,17,09,19,10.40
2022,10,17,09,20,10.40
2022,10,17,09,21,10.40
2022,10,17,09,22,10.40
2022,10,17,09,23,10.60
2022,10,17,09,24,10.60
2022,10,17,09,25,10.60
2022,10,17,09,26,10.60
2022,10,17,09,27,10.60
2022,10,17,09,28,10.70
2022,10,17,09,29,10.80
2022,10,17,09,30,10.90
2022,10,17,09,31,11.00
2022,10,17,09,32,11.10
2022,10,17,09,33,11.20
2022,10,17,09,34,11.30
2022,10,17,09,35,11.40
2022,10,17,09,36,11.50
2022,10,17,09,37,11.60
2022,10,17,09,38,11.70
2022,10,17,09,39,11.80
2022,10,17,09,40,11.80
2022,10,17,09,41,11.80
2022,10,17,09,42,11.90
2022,10,17,09,43,12.00
2022,10,17,09,44,12.00
2022,10,17,09,45,12.10
2022,10,17,09,46,12.20
2022,10,17,09,47,12.30
2022,10,17,09,48,12.30
2022,10,17,09,49,12.40
2022,10,17,09,50,12.40
2022,10,17,09,51,12.40
2022,10,17,09,52,12.50
2022,10,17,09,53,12.50
2022,10,17,09,54,12.50
2022,10,17,09,55,12.50
2022,10,17,09,56,12.60
2022,10,17,09,57,12.60
2022,10,17,09,58,12.60
2022,10,17,09,59,12.70
2022,10,17,10,00,12.80
2022,10,17,10,01,12.80
2022,10,17,10,02,12.80
2022,10,17,10,03,12.90
2022,10,17,10,04,13.00
2022,10,17,10,05,13.00
2022,10,17,10,06,13.10
2022,10,17,10,07,13.20
2022,10,17,10,08,13.20
2022,10,17,10,09,13.30
2022,10,17,10,10,13.30
2022,10,17,10,11,13.30
2022,10,17,10,12,13.40
2022,10,17,10,13,13.40
2022,10,17,10,14,13.50
2022,10,17,10,15,13.50
2022,10,17,10,16,13.50
2022,10,17,10,17,13.60
2022,10,17,10,18,13.70
2022,10,17,10,19,13.70
2022,10,17,10,20,13.80
2022,10,17,10,21,13.90
2022,10,17,10,22,14.00
2022,10,17,10,23,14.10
2022,10,17,10,24,14.20
2022,10,17,10,25,14.30
2022,10,17,10,26,14.40
2022,10,17,10,27,14.40
2022,10,17,10,28,14.40
2022,10,17,10,29,14.50
2022,10,17,10,30,14.60
2022,10,17,10,31,14.60
2022,10,17,10,32,14.70
2022,10,17,10,33,14.80
2022,10,17,10,34,14.90
2022,10,17,10,35,15.00
2022,10,17,10,36,15.10
2022,10,17,10,37,15.20
2022,10,17,10,38,15.30
2022,10,17,10,39,15.30
2022,10,17,10,40,15.40
2022,10,17,10,41,15.40
2022,10,17,10,42,15.40
2022,10,17,10,43,15.40
2022,10,17,10,44,15.40
2022,10,17,10,45,15.50
2022,10,17,10,46,15.50
2022,10,17,10,47,15.60
2022,10,17,10,48,15.60
2022,10,17,10,49,15.60
2022,10,17,10,50,15.60
2022,10,17,10,51,15.50
2022,10,17,10,52,15.40
2022,10,17,10,53,15.30
2022,10,17,10,54,15.20
2022,10,17,10,55,15.20
2022,10,17,10,56,15.20
2022,10,17,10,57,15.20
2022,10,17,10,58,15.20
2022,10,17,10,59,15.30
2022,10,17,11,00,15.30
2022,10,17,11,01,15.30
2022,10,17,11,02,15.30
2022,10,17,11,03,15.40
2022,10,17,11,04,15.40
2022,10,17,11,05,15.40
2022,10,17,11,06,15.50
2022,10,17,11,07,15.50
2022,10,17,11,08,15.50
2022,10,17,11,09,15.50
2022,10,17,11,10,15.60
2022,10,17,11,11,15.70
2022,10,17,11,12,15.80
2022,10,17,11,13,15.80
2022,10,17,11,14,15.80
2022,10,17,11,15,15.80
2022,10,17,11,16,15.80
2022,10,17,11,17,15.80
2022,10,17,11,18,15.70
2022,10,17,11,19,15.70
2022,10,17,11,20,15.70
2022,10,17,11,21,15.70
2022,10,17,11,22,15.70
2022,10,17,11,23,15.70
2022,10,17,11,24,15.70
2022,10,17,11,25,15.70
2022,10,17,11,26,15.80
2022,10,17,11,27,15.80
2022,10,17,11,28,15.80
2022,10,17,11,29,15.80
2022,10,17,11,30,15.80
2022,10,17,11,31,15.80
2022,10,17,11,32,15.80
2022,10,17,11,33,15.80
2022,10,17,11,34,15.80
2022,10,17,11,35,15.80
2022,10,17,11,36,15.90
2022,10,17,11,37,15.90
2022,10,17,11,38,16.10
2022,10,17,11,39,16.10
2022,10,17,11,40,16.10
2022,10,17,11,41,16.10
2022,10,17,11,42,16.20
2022,10,17,11,43,16.20
2022,10,17,11,44,16.20
2022,10,17,11,45,16.20
2022,10,17,11,46,16.20
2022,10,17,11,47,16.20
2022,10,17,11,48,16.30
2022,10,17,11,49,16.40
2022,10,17,11,50,16.40
2022,10,17,11,51,16.40
2022,10,17,11,52,16.40
2022,10,17,11,53,16.40
2022,10,17,11,54,16.30
2022,10,17,11,55,16.30
2022,10,17,11,56,16.30
2022,10,17,11,57,16.30
2022,10,17,11,58,16.40
2022,10,17,11,59,16.50
2022,10,17,12,00,16.70
2022,10,17,12,01,16.70
2022,10,17,12,02,16.90
2022,10,17,12,03,16.90
2022,10,17,12,04,16.90
2022,10,17,12,05,16.80
2022,10,17,12,06,16.80
2022,10,17,12,07,16.70
2022,10,17,12,08,16.70
2022,10,17,12,09,16.70
2022,10,17,12,10,16.70
2022,10,17,12,11,16.70
2022,10,17,12,12,16.70
2022,10,17,12,13,16.80
2022,10,17,12,14,16.80
2022,10,17,12,15,16.80
2022,10,17,12,16,16.80
2022,10,17,12,17,16.80
2022,10,17,12,18,16.80
2022,10,17,12,19,16.70
2022,10,17,12,20,16.70
2022,10,17,12,21,16.80
2022,10,17,12,22,16.80
2022,10,17,12,23,16.90
2022,10,17,12,24,16.90
2022,10,17,12,25,16.80
2022,10,17,12,26,16.70
2022,10,17,12,27,16.70
2022,10,17,12,28,16.70
2022,10,17,12,29,16.60
2022,10,17,12,30,16.60
2022,10,17,12,31,16.60
2022,10,17,12,32,16.60
2022,10,17,12,33,16.50
2022,10,17,12,34,16.40
2022,10,17,12,35,16.40
2022,10,17,12,36,16.40
2022,10,17,12,37,16.40
2022,10,17,12,38,16.40
2022,10,17,12,39,16.40
2022,10,17,12,40,16.40
2022,10,17,12,41,16.40
2022,10,17,12,42,16.40
2022,10,17,12,43,16.40
2022,10,17,12,44,16.40
2022,10,17,12,45,16.40
2022,10,17,12,46,16.30
2022,10,17,12,47,16.30
2022,10,17,12,48,16.30
2022,10,17,12,49,16.30
2022,10,17,12,50,16.30
2022,10,17,12,51,16.40
2022,10,17,12,52,16.40
2022,10,17,12,53,16.40
2022,10,17,12,54,16.40
2022,10,17,12,55,16.50
2022,10,17,12,56,16.60
2022,10,17,12,57,16.50
2022,10,17,12,58,16.60
2022,10,17,12,59,16.60
2022,10,17,13,00,16.60
2022,10,17,13,01,16.60
2022,10,17,13,02,16.70
2022,10,17,13,03,16.70
2022,10,17,13,04,16.70
2022,10,17,13,05,16.60
2022,10,17,13,06,16.60
2022,10,17,13,07,16.60
2022,10,17,13,08,16.60
2022,10,17,13,09,16.60
2022,10,17,13,10,16.60
2022,10,17,13,11,16.60
2022,10,17,13,12,16.60
2022,10,17,13,13,16.60
2022,10,17,13,14,16.70
2022,10,17,13,15,16.60
2022,10,17,13,16,16.60
2022,10,17,13,17,16.50
2022,10,17,13,18,16.40
2022,10,17,13,19,16.40
2022,10,17,13,20,16.40
2022,10,17,13,21,16.40
2022,10,17,13,22,16.40
2022,10,17,13,23,16.40
2022,10,17,13,24,16.40
2022,10,17,13,25,16.40
2022,10,17,13,26,16.40
2022,10,17,13,27,16.40
2022,10,17,13,28,16.40
2022,10,17,13,29,16.40
2022,10,17,13,30,16.40
2022,10,17,13,31,16.40
2022,10,17,13,32,16.40
2022,10,17,13,33,16.40
2022,10,17,13,34,16.40
2022,10,17,13,35,16.40
2022,10,17,13,36,16.40
2022,10,17,13,37,16.40
2022,10,17,13,38,16.40
2022,10,17,13,39,16.40
2022,10,17,13,40,16.40
2022,10,17,13,41,16.40
2022,10,17,13,42,16.40
2022,10,17,13,43,16.40
2022,10,17,13,44,16.30
2022,10,17,13,45,16.40
2022,10,17,13,46,16.40
2022,10,17,13,47,16.40
2022,10,17,13,48,16.30
2022,10,17,13,49,16.30
2022,10,17,13,50,16.20
2022,10,17,13,51,16.20
2022,10,17,13,52,16.10
2022,10,17,13,53,16.20
2022,10,17,13,54,16.20
2022,10,17,13,55,16.20
2022,10,17,13,56,16.30
2022,10,17,13,57,16.40
2022,10,17,13,58,16.40
2022,10,17,13,59,16.40
2022,10,17,14,00,16.50
2022,10,17,14,01,16.60
2022,10,17,14,02,16.50
2022,10,17,14,03,16.40
2022,10,17,14,04,16.50
2022,10,17,14,05,16.60
2022,10,17,14,06,16.70
2022,10,17,14,07,16.70
2022,10,17,14,08,16.80
2022,10,17,14,09,16.80
2022,10,17,14,10,16.90
2022,10,17,14,11,16.90
2022,10,17,14,12,17.00
2022,10,17,14,13,16.90
2022,10,17,14,14,16.90
2022,10,17,14,15,16.90
2022,10,17,14,16,16.90
2022,10,17,14,17,16.90
2022,10,17,14,18,17.00
2022,10,17,14,19,17.00
2022,10,17,14,20,17.10
2022,10,17,14,21,17.20
2022,10,17,14,22,17.20
2022,10,17,14,23,17.10
2022,10,17,14,24,17.10
2022,10,17,14,25,17.10
2022,10,17,14,26,17.20
2022,10,17,14,27,17.30
2022,10,17,14,28,17.20
2022,10,17,14,29,17.10
2022,10,17,14,30,17.10
2022,10,17,14,31,17.20
2022,10,17,14,32,17.20
2022,10,17,14,33,17.20
2022,10,17,14,34,17.20
2022,10,17,14,35,17.20
2022,10,17,14,36,17.30
2022,10,17,14,37,17.30
2022,10,17,14,38,17.30
2022,10,17,14,39,17.30
2022,10,17,14,40,17.30
2022,10,17,14,41,17.30
2022,10,17,14,42,17.30
2022,10,17,14,43,17.30
2022,10,17,14,44,17.30
2022,10,17,14,45,17.30
2022,10,17,14,46,17.40
2022,10,17,14,47,17.50
2022,10,17,14,48,17.60
2022,10,17,14,49,17.60
2022,10,17,14,50,17.60
2022,10,17,14,51,17.60
2022,10,17,14,52,17.70
2022,10,17,14,53,17.80
2022,10,17,14,54,17.70
2022,10,17,14,55,17.60
2022,10,17,14,56,17.60
2022,10,17,14,57,17.60
2022,10,17,14,58,17.60
2022,10,17,14,59,17.60
2022,10,17,15,00,17.60
2022,10,17,15,01,17.60
2022,10,17,15,02,17.60
2022,10,17,15,03,17.50
2022,10,17,15,04,17.50
2022,10,17,15,05,17.40
2022,10,17,15,06,17.40
2022,10,17,15,07,17.30
2022,10,17,15,08,17.30
2022,10,17,15,09,17.30
2022,10,17,15,10,17.30
2022,10,17,15,11,17.30
2022,10,17,15,12,17.30
2022,10,17,15,13,17.30
2022,10,17,15,14,17.30
2022,10,17,15,15,17.30
2022,10,17,15,16,17.30
2022,10,17,15,17,17.30
2022,10,17,15,18,17.30
2022,10,17,15,19,17.30
2022,10,17,15,20,17.30
2022,10,17,15,21,17.30
2022,10,17,15,22,17.30
2022,10,17,15,23,17.30
2022,10,17,15,24,17.30
2022,10,17,15,25,17.30
2022,10,17,15,26,17.20
2022,10,17,15,27,17.20
2022,10,17,15,28,17.20
2022,10,17,15,29,17.30
2022,10,17,15,30,17.40
2022,10,17,15,31,17.40
2022,10,17,15,32,17.40
2022,10,17,15,33,17.40
2022,10,17,15,34,17.40
2022,10,17,15,35,17.30
2022,10,17,15,36,17.30
2022,10,17,15,37,17.30
2022,10,17,15,38,17.30
2022,10,17,15,39,17.30
2022,10,17,15,40,17.30
2022,10,17,15,41,17.30
2022,10,17,15,42,17.30
2022,10,17,15,43,17.30
2022,10,17,15,44,17.30
2022,10,17,15,45,17.30
2022,10,17,15,46,17.40
2022,10,17,15,47,17.40
2022,10,17,15,48,17.40
2022,10,17,15,49,17.50
2022,10,17,15,50,17.50
2022,10,17,15,51,17.60
2022,10,17,15,52,17.60
2022,10,17,15,53,17.60
2022,10,17,15,54,17.60
2022,10,17,15,55,17.70
2022,10,17,15,56,17.70
2022,10,17,15,57,17.70
2022,10,17,15,58,17.60
2022,10,17,15,59,17.60
2022,10,17,16,00,17.60
2022,10,17,16,01,17.60
2022,10,17,16,02,17.60
2022,10,17,16,03,17.60
2022,10,17,16,04,17.60
2022,10,17,16,05,17.60
2022,10,17,16,06,17.60
2022,10,17,16,07,17.70
2022,10,17,16,08,17.70
2022,10,17,16,09,17.60
2022,10,17,16,10,17.60
2022,10,17,16,11,17.60
2022,10,17,16,12,17.50
2022,10,17,16,13,17.50
2022,10,17,16,14,17.50
2022,10,17,16,15,17.60
2022,10,17,16,16,17.60
2022,10,17,16,17,17.60
2022,10,17,16,18,17.50
2022,10,17,16,19,17.60
2022,10,17,16,20,17.60
2022,10,17,16,21,17.60
2022,10,17,16,22,17.60
2022,10,17,16,23,17.50
2022,10,17,16,24,17.50
2022,10,17,16,25,17.50
2022,10,17,16,26,17.40
2022,10,17,16,27,17.40
2022,10,17,16,28,17.40
2022,10,17,16,29,17.30
2022,10,17,16,30,17.30
2022,10,17,16,31,17.30
2022,10,17,16,32,17.30
2022,10,17,16,33,17.30
2022,10,17,16,34,17.30
2022,10,17,16,35,17.30
2022,10,17,16,36,17.30
2022,10,17,16,37,17.30
2022,10,17,16,38,17.30
2022,10,17,16,39,17.30
2022,10,17,16,40,17.30
2022,10,17,16,41,17.30
2022,10,17,16,42,17.30
2022,10,17,16,43,17.30
2022,10,17,16,44,17.20
2022,10,17,16,45,17.20
2022,10,17,16,46,17.10
2022,10,17,16,47,17.10
2022,10,17,16,48,17.00
2022,10,17,16,49,17.00
2022,10,17,16,50,17.00
2022,10,17,16,51,16.90
2022,10,17,16,52,16.90
2022,10,17,16,53,16.90
2022,10,17,16,54,16.80
2022,10,17,16,55,16.80
2022,10,17,16,56,16.80
2022,10,17,16,57,16.80
2022,10,17,16,58,16.70
2022,10,17,16,59,16.70
2022,10,17,17,00,16.70
2022,10,17,17,01,16.70
2022,10,17,17,02,16.70
2022,10,17,17,03,16.70
2022,10,17,17,04,16.70
2022,10,17,17,05,16.70
2022,10,17,17,06,16.70
2022,10,17,17,07,16.70
2022,10,17,17,08,16.70
2022,10,17,17,09,16.70
2022,10,17,17,10,16.70
2022,10,17,17,11,16.60
2022,10,17,17,12,16.60
2022,10,17,17,13,16.60
2022,10,17,17,14,16.60
2022,10,17,17,15,16.60
2022,10,17,17,16,16.60
2022,10,17,17,17,16.60
2022,10,17,17,18,16.60
2022,10,17,17,19,16.60
2022,10,17,17,20,16.50
2022,10,17,17,21,16.40
2022,10,17,17,22,16.40
2022,10,17,17,23,16.40
2022,10,17,17,24,16.40
2022,10,17,17,25,16.40
2022,10,17,17,26,16.30
2022,10,17,17,27,16.30
2022,10,17,17,28,16.30
2022,10,17,17,29,16.20
2022,10,17,17,30,16.10
2022,10,17,17,31,16.10
2022,10,17,17,32,16.10
2022,10,17,17,33,16.10
2022,10,17,17,34,16.00
2022,10,17,17,35,15.90
2022,10,17,17,36,15.80
2022,10,17,17,37,15.80
2022,10,17,17,38,15.70
2022,10,17,17,39,15.60
2022,10,17,17,40,15.60
2022,10,17,17,41,15.50
2022,10,17,17,42,15.40
2022,10,17,17,43,15.40